| time (UTC) | temp F | wind direction | speed knots | gust knots | rain 1hr in | rain 24hr in | rain mn in | humidity % | barometer mb |
| 20260504181024 | 60 | 360 | 4.3 | 12.2 | 0.00 | 0.00 | 0.00 | 44 | 1005.4 |
| 20260504180522 | 60 | 360 | 3.5 | 9.6 | 0.00 | 0.00 | 0.00 | 46 | 1005.3 |
| 20260504180025 | 60 | 360 | 3.5 | 9.6 | 0.00 | 0.00 | 0.00 | 45 | 1005.4 |
| 20260504175521 | 59 | 360 | 2.6 | 10.4 | 0.00 | 0.00 | 0.00 | 46 | 1005.2 |
| 20260504175020 | 59 | 360 | 3.5 | 10.4 | 0.00 | 0.00 | 0.00 | 46 | 1005.2 |
| 20260504174520 | 59 | 360 | 4.3 | 11.3 | 0.00 | 0.00 | 0.00 | 47 | 1005.1 |
| 20260504174021 | 59 | 360 | 4.3 | 10.4 | 0.00 | 0.00 | 0.00 | 47 | 1005.1 |
| 20260504173520 | 59 | 360 | 4.3 | 10.4 | 0.00 | 0.00 | 0.00 | 48 | 1005.1 |
| 20260504173017 | 58 | 360 | 5.2 | 13.9 | 0.00 | 0.00 | 0.00 | 48 | 1005.1 |
| 20260504172521 | 58 | 360 | 7.0 | 13.0 | 0.00 | 0.00 | 0.00 | 48 | 1005.0 |
| 20260504172016 | 58 | 360 | 7.8 | 13.0 | 0.00 | 0.00 | 0.00 | 49 | 1005.1 |
| 20260504171516 | 58 | 360 | 7.8 | 12.2 | 0.00 | 0.00 | 0.00 | 49 | 1005.1 |
| 20260504171016 | 58 | 360 | 7.8 | 12.2 | 0.00 | 0.00 | 0.00 | 50 | 1005.1 |
| 20260504170515 | 58 | 360 | 6.1 | 11.3 | 0.00 | 0.00 | 0.00 | 51 | 1005.1 |
| 20260504151006 | 55 | 360 | 2.6 | 5.2 | 0.00 | 0.00 | 0.00 | 57 | 1006.0 |
| 20260504150506 | 55 | 360 | 2.6 | 5.2 | 0.00 | 0.00 | 0.00 | 53 | 1005.8 |
| 20260504141002 | 55 | 360 | 7.0 | 13.0 | 0.00 | 0.00 | 0.00 | 50 | 1005.0 |
| 20260504140600 | 54 | 360 | 6.1 | 10.4 | 0.00 | 0.00 | 0.00 | 50 | 1005.0 |
| 20260504130556 | 55 | 360 | 7.0 | 13.0 | 0.00 | 0.00 | 0.00 | 47 | 1004.3 |
| 20260504120119 | 55 | 360 | 4.3 | 11.3 | 0.00 | 0.00 | 0.00 | 47 | 1004.8 |
| 20260504110549 | 54 | 360 | 5.2 | 13.9 | 0.00 | 0.00 | 0.00 | 50 | 1005.0 |
| 20260504081529 | 56 | 360 | 4.3 | 10.4 | 0.00 | 0.00 | 0.00 | 46 | 1005.2 |
| 20260504081027 | 56 | 360 | 7.0 | 12.2 | 0.00 | 0.00 | 0.00 | 46 | 1005.3 |
| 20260504080527 | 56 | 360 | 7.0 | 12.2 | 0.00 | 0.00 | 0.00 | 46 | 1005.3 |
| 20260504050606 | 59 | 360 | 0.9 | 2.6 | 0.00 | 0.00 | 0.00 | 33 | 1005.3 |
| 20260504050006 | 60 | 360 | 1.7 | 7.8 | 0.00 | 0.00 | 0.00 | 33 | 1005.3 |
| 20260504045505 | 60 | 360 | 3.5 | 7.8 | 0.00 | 0.00 | 0.00 | 33 | 1005.3 |
| 20260504045010 | 60 | 360 | 4.3 | 7.8 | 0.00 | 0.00 | 0.00 | 32 | 1005.4 |
| 20260504044510 | 60 | 360 | 4.3 | 9.6 | 0.00 | 0.00 | 0.00 | 33 | 1005.3 |
| 20260504044006 | 60 | 360 | 6.1 | 10.4 | 0.00 | 0.00 | 0.00 | 32 | 1005.2 |
| 20260504043505 | 60 | 360 | 5.2 | 10.4 | 0.00 | 0.00 | 0.00 | 33 | 1005.1 |
| 20260504043010 | 60 | 360 | 5.2 | 9.6 | 0.00 | 0.00 | 0.00 | 33 | 1005.2 |
| 20260504042505 | 60 | 360 | 4.3 | 13.0 | 0.00 | 0.00 | 0.00 | 33 | 1005.2 |
| 20260504042004 | 60 | 360 | 6.1 | 13.0 | 0.00 | 0.00 | 0.00 | 33 | 1005.1 |
| 20260504041504 | 60 | 360 | 6.1 | 11.3 | 0.00 | 0.00 | 0.00 | 34 | 1005.1 |
| 20260504041004 | 60 | 360 | 7.0 | 12.2 | 0.00 | 0.00 | 0.00 | 34 | 1005.0 |
| 20260504040504 | 60 | 360 | 7.0 | 12.2 | 0.00 | 0.00 | 0.00 | 35 | 1005.0 |
| 20260504040004 | 60 | 360 | 6.1 | 12.2 | 0.00 | 0.00 | 0.00 | 35 | 1005.0 |
| 20260504035503 | 60 | 360 | 7.8 | 12.2 | 0.00 | 0.00 | 0.00 | 35 | 1005.1 |
| 20260504035004 | 60 | 360 | 7.0 | 11.3 | 0.00 | 0.00 | 0.00 | 35 | 1005.0 |
| 20260504034503 | 60 | 360 | 5.2 | 9.6 | 0.00 | 0.00 | 0.00 | 35 | 1005.1 |
| 20260504034003 | 60 | 360 | 5.2 | 11.3 | 0.00 | 0.00 | 0.00 | 35 | 1005.1 |
| 20260504033502 | 60 | 360 | 5.2 | 12.2 | 0.00 | 0.00 | 0.00 | 36 | 1005.0 |
| 20260504033002 | 60 | 360 | 6.1 | 12.2 | 0.00 | 0.00 | 0.00 | 35 | 1005.0 |
| 20260504032503 | 60 | 360 | 7.0 | 13.0 | 0.00 | 0.00 | 0.00 | 35 | 1005.1 |
| 20260504032002 | 60 | 360 | 7.0 | 13.0 | 0.00 | 0.00 | 0.00 | 35 | 1005.1 |
| 20260504031506 | 60 | 360 | 7.0 | 13.0 | 0.00 | 0.00 | 0.00 | 36 | 1005.2 |
| 20260504031001 | 61 | 360 | 5.2 | 10.4 | 0.00 | 0.00 | 0.00 | 36 | 1005.1 |
| 20260504030502 | 61 | 360 | 6.1 | 12.2 | 0.00 | 0.00 | 0.00 | 34 | 1005.1 |
| 20260504030002 | 61 | 360 | 6.1 | 13.9 | 0.00 | 0.00 | 0.00 | 34 | 1005.2 |
| 20260504025502 | 61 | 360 | 7.8 | 15.6 | 0.00 | 0.00 | 0.00 | 33 | 1005.0 |
| 20260504025004 | 61 | 360 | 6.1 | 15.6 | 0.00 | 0.00 | 0.00 | 34 | 1005.0 |
| 20260504024502 | 61 | 360 | 6.1 | 13.9 | 0.00 | 0.00 | 0.00 | 34 | 1004.9 |
| 20260504024100 | 61 | 360 | 7.0 | 13.9 | 0.00 | 0.00 | 0.00 | 34 | 1005.0 |
| 20260504023559 | 61 | 360 | 3.5 | 9.6 | 0.00 | 0.00 | 0.00 | 34 | 1005.0 |
| 20260504023059 | 61 | 360 | 2.6 | 9.6 | 0.00 | 0.00 | 0.00 | 34 | 1005.0 |
| 20260504022603 | 61 | 360 | 4.3 | 12.2 | 0.00 | 0.00 | 0.00 | 34 | 1004.9 |
| 20260504022102 | 61 | 360 | 7.8 | 12.2 | 0.00 | 0.00 | 0.00 | 34 | 1004.9 |
| 20260504021559 | 61 | 360 | 7.0 | 13.0 | 0.00 | 0.00 | 0.00 | 34 | 1004.9 |
| 20260504021201 | 61 | 360 | 6.1 | 13.9 | 0.00 | 0.00 | 0.00 | 35 | 1004.9 |
| 20260504020559 | 61 | 360 | 7.0 | 14.8 | 0.00 | 0.00 | 0.00 | 35 | 1005.0 |
| 20260504020107 | 61 | 360 | 8.7 | 14.8 | 0.00 | 0.00 | 0.00 | 35 | 1005.1 |
| 20260504015559 | 61 | 360 | 7.0 | 12.2 | 0.00 | 0.00 | 0.00 | 35 | 1005.2 |
| 20260504015059 | 61 | 360 | 6.1 | 13.9 | 0.00 | 0.00 | 0.00 | 36 | 1005.4 |
| 20260504014606 | 61 | 360 | 7.0 | 13.9 | 0.00 | 0.00 | 0.00 | 36 | 1005.4 |
| 20260504014057 | 61 | 360 | 8.7 | 13.9 | 0.00 | 0.00 | 0.00 | 38 | 1005.4 |
| 20260504013557 | 61 | 360 | 9.6 | 15.6 | 0.00 | 0.00 | 0.00 | 36 | 1005.3 |
| 20260504013058 | 61 | 360 | 9.6 | 15.6 | 0.00 | 0.00 | 0.00 | 36 | 1005.4 |
| 20260504012557 | 61 | 360 | 9.6 | 18.2 | 0.00 | 0.00 | 0.00 | 36 | 1005.3 |
| 20260504012057 | 61 | 360 | 8.7 | 18.2 | 0.00 | 0.00 | 0.00 | 36 | 1005.3 |
| 20260504011557 | 61 | 360 | 9.6 | 18.2 | 0.00 | 0.00 | 0.00 | 36 | 1005.3 |
| 20260504011058 | 62 | 360 | 10.4 | 18.2 | 0.00 | 0.00 | 0.00 | 36 | 1005.2 |
| 20260504010556 | 62 | 360 | 11.3 | 18.2 | 0.00 | 0.00 | 0.00 | 35 | 1004.9 |
| 20260504010101 | 62 | 360 | 9.6 | 16.5 | 0.00 | 0.00 | 0.00 | 35 | 1004.9 |
| 20260504005556 | 63 | 360 | 9.6 | 18.2 | 0.00 | 0.00 | 0.00 | 35 | 1004.8 |
| 20260504005056 | 63 | 360 | 10.4 | 18.2 | 0.00 | 0.00 | 0.00 | 34 | 1004.6 |
| 20260504004556 | 64 | 360 | 10.4 | 18.2 | 0.00 | 0.00 | 0.00 | 33 | 1004.7 |
| 20260504004056 | 64 | 360 | 12.2 | 18.2 | 0.00 | 0.00 | 0.00 | 33 | 1004.6 |
| 20260504003555 | 63 | 360 | 11.3 | 18.2 | 0.00 | 0.00 | 0.00 | 34 | 1004.5 |
| 20260504003058 | 63 | 360 | 8.7 | 15.6 | 0.00 | 0.00 | 0.00 | 33 | 1004.4 |
| 20260504002554 | 64 | 360 | 9.6 | 20.0 | 0.00 | 0.00 | 0.00 | 33 | 1004.3 |
| 20260504002054 | 64 | 360 | 11.3 | 20.0 | 0.00 | 0.00 | 0.00 | 31 | 1004.1 |
| 20260504001559 | 64 | 360 | 12.2 | 18.2 | 0.00 | 0.00 | 0.00 | 31 | 1004.3 |
| 20260504001053 | 63 | 360 | 11.3 | 20.9 | 0.00 | 0.00 | 0.00 | 32 | 1004.4 |
| 20260504000554 | 63 | 360 | 12.2 | 23.5 | 0.00 | 0.00 | 0.00 | 33 | 1004.3 |
| 20260504000059 | 63 | 360 | 11.3 | 23.5 | 0.00 | 0.00 | 0.00 | 33 | 1004.3 |
| 20260503235553 | 63 | 360 | 12.2 | 19.1 | 0.00 | 0.00 | 0.00 | 33 | 1004.3 |
| 20260503235053 | 64 | 360 | 11.3 | 22.6 | 0.00 | 0.00 | 0.00 | 33 | 1004.2 |
| 20260503234552 | 64 | 360 | 13.0 | 24.3 | 0.00 | 0.00 | 0.00 | 34 | 1004.1 |
| 20260503234052 | 64 | 360 | 14.8 | 24.3 | 0.00 | 0.00 | 0.00 | 34 | 1004.1 |
| 20260503233553 | 63 | 360 | 13.0 | 26.9 | 0.00 | 0.00 | 0.00 | 35 | 1004.1 |
| 20260503233053 | 64 | 360 | 17.4 | 26.9 | 0.00 | 0.00 | 0.00 | 34 | 1004.1 |
| 20260503232555 | 64 | 360 | 15.6 | 26.1 | 0.00 | 0.00 | 0.00 | 34 | 1004.0 |
| 20260503232052 | 64 | 360 | 14.8 | 24.3 | 0.00 | 0.00 | 0.00 | 34 | 1003.6 |
| 20260503231550 | 64 | 360 | 15.6 | 26.9 | 0.00 | 0.00 | 0.00 | 33 | 1003.4 |
| 20260503231051 | 66 | 360 | 18.2 | 26.9 | 0.00 | 0.00 | 0.00 | 31 | 1003.4 |
| 20260503230550 | 70 | 360 | 11.3 | 19.1 | 0.00 | 0.00 | 0.00 | 23 | 1003.4 |
| 20260503230108 | 68 | 360 | 6.1 | 19.1 | 0.00 | 0.00 | 0.00 | 22 | 1003.2 |
| 20260503225549 | 68 | 360 | 6.1 | 24.3 | 0.00 | 0.00 | 0.00 | 24 | 1003.2 |
| 20260503225049 | 67 | 360 | 14.8 | 24.3 | 0.00 | 0.00 | 0.00 | 25 | 1003.3 |
| 20260503224550 | 67 | 360 | 12.2 | 21.7 | 0.00 | 0.00 | 0.00 | 25 | 1003.5 |
| 20260503224049 | 68 | 360 | 12.2 | 24.3 | 0.00 | 0.00 | 0.00 | 25 | 1003.9 |
| 20260503223549 | 68 | 360 | 14.8 | 31.3 | 0.00 | 0.00 | 0.00 | 24 | 1003.7 |
| 20260503223106 | 68 | 360 | 14.8 | 31.3 | 0.00 | 0.00 | 0.00 | 25 | 1003.5 |
| 20260503222548 | 68 | 360 | 15.6 | 30.4 | 0.00 | 0.00 | 0.00 | 26 | 1003.0 |
| 20260503222048 | 70 | 360 | 15.6 | 30.4 | 0.00 | 0.00 | 0.00 | 24 | 1002.8 |
| 20260503221551 | 69 | 360 | 13.9 | 29.5 | 0.00 | 0.00 | 0.00 | 25 | 1002.7 |
| 20260503221048 | 69 | 360 | 15.6 | 31.3 | 0.00 | 0.00 | 0.00 | 23 | 1003.0 |
| 20260503220548 | 70 | 360 | 13.0 | 33.0 | 0.00 | 0.00 | 0.00 | 23 | 1003.1 |
| 20260503220050 | 72 | 360 | 22.6 | 33.0 | 0.00 | 0.00 | 0.00 | 20 | 1002.7 |
| 20260503215547 | 76 | 360 | 12.2 | 24.3 | 0.00 | 0.00 | 0.00 | 16 | 1002.9 |
| 20260503215046 | 77 | 360 | 5.2 | 11.3 | 0.00 | 0.00 | 0.00 | 13 | 1002.6 |
| 20260503214555 | 77 | 360 | 4.3 | 11.3 | 0.00 | 0.00 | 0.00 | 13 | 1002.6 |
| 20260503214046 | 77 | 360 | 4.3 | 12.2 | 0.00 | 0.00 | 0.00 | 13 | 1002.6 |
| 20260503213546 | 78 | 360 | 2.6 | 12.2 | 0.00 | 0.00 | 0.00 | 13 | 1002.6 |
| 20260503213046 | 78 | 360 | 4.3 | 11.3 | 0.00 | 0.00 | 0.00 | 13 | 1002.8 |
| 20260503212544 | 78 | 360 | 4.3 | 11.3 | 0.00 | 0.00 | 0.00 | 13 | 1002.9 |
| 20260503212042 | 78 | 360 | 2.6 | 9.6 | 0.00 | 0.00 | 0.00 | 13 | 1003.0 |
| 20260503211542 | 78 | 360 | 1.7 | 13.0 | 0.00 | 0.00 | 0.00 | 13 | 1003.1 |
| 20260503211041 | 78 | 360 | 6.1 | 13.0 | 0.00 | 0.00 | 0.00 | 13 | 1003.2 |
| 20260503210541 | 78 | 360 | 0.9 | 7.0 | 0.00 | 0.00 | 0.00 | 13 | 1003.1 |
| 20260503210040 | 77 | 360 | 1.7 | 7.8 | 0.00 | 0.00 | 0.00 | 13 | 1003.2 |
| 20260503205539 | 78 | 360 | 2.6 | 10.4 | 0.00 | 0.00 | 0.00 | 13 | 1003.3 |
| 20260503205039 | 78 | 360 | 4.3 | 8.7 | 0.00 | 0.00 | 0.00 | 13 | 1003.4 |
| 20260503204543 | 77 | 360 | 0.0 | 7.8 | 0.00 | 0.00 | 0.00 | 13 | 1003.4 |
| 20260503204037 | 77 | 360 | 3.5 | 9.6 | 0.00 | 0.00 | 0.00 | 13 | 1003.5 |
| 20260503203536 | 78 | 360 | 3.5 | 10.4 | 0.00 | 0.00 | 0.00 | 13 | 1003.6 |
| 20260503203035 | 78 | 360 | 2.6 | 12.2 | 0.00 | 0.00 | 0.00 | 13 | 1003.6 |
| 20260503202535 | 78 | 360 | 2.6 | 10.4 | 0.00 | 0.00 | 0.00 | 13 | 1003.7 |
| 20260503202036 | 78 | 360 | 4.3 | 10.4 | 0.00 | 0.00 | 0.00 | 13 | 1003.8 |
| 20260503201535 | 78 | 360 | 4.3 | 7.8 | 0.00 | 0.00 | 0.00 | 13 | 1003.9 |
| 20260503201032 | 77 | 360 | 2.6 | 7.0 | 0.00 | 0.00 | 0.00 | 14 | 1004.0 |
| 20260503200532 | 77 | 360 | 1.7 | 11.3 | 0.00 | 0.00 | 0.00 | 14 | 1004.0 |
| 20260503200031 | 77 | 90 | 3.5 | 12.2 | 0.00 | 0.00 | 0.00 | 14 | 1004.2 |
| 20260503195530 | 79 | 360 | 7.8 | 12.2 | 0.00 | 0.00 | 0.00 | 13 | 1004.2 |
| 20260503195028 | 80 | 360 | 1.7 | 7.0 | 0.00 | 0.00 | 0.00 | 13 | 1004.4 |
| 20260503194529 | 80 | 360 | 2.6 | 8.7 | 0.00 | 0.00 | 0.00 | 13 | 1004.5 |
| 20260503194027 | 80 | 360 | 2.6 | 8.7 | 0.00 | 0.00 | 0.00 | 13 | 1004.6 |
| 20260503193525 | 80 | 360 | 2.6 | 5.2 | 0.00 | 0.00 | 0.00 | 13 | 1004.7 |
| 20260503193024 | 79 | 360 | 0.9 | 10.4 | 0.00 | 0.00 | 0.00 | 14 | 1004.8 |
| 20260503192524 | 79 | 360 | 5.2 | 10.4 | 0.00 | 0.00 | 0.00 | 13 | 1004.9 |
| 20260503192021 | 79 | 360 | 3.5 | 9.6 | 0.00 | 0.00 | 0.00 | 14 | 1004.9 |
| 20260503191521 | 79 | 360 | 2.6 | 10.4 | 0.00 | 0.00 | 0.00 | 14 | 1005.0 |
| 20260503191019 | 78 | 360 | 3.5 | 10.4 | 0.00 | 0.00 | 0.00 | 14 | 1005.1 |
| 20260503190519 | 78 | 360 | 3.5 | 9.6 | 0.00 | 0.00 | 0.00 | 14 | 1005.3 |
| 20260503190017 | 77 | 360 | 3.5 | 5.2 | 0.00 | 0.00 | 0.00 | 15 | 1005.4 |
| 20260503185517 | 77 | 360 | 1.7 | 5.2 | 0.00 | 0.00 | 0.00 | 15 | 1005.4 |
| 20260503185018 | 76 | 360 | 1.7 | 5.2 | 0.00 | 0.00 | 0.00 | 17 | 1005.6 |
| 20260503184514 | 75 | 360 | 2.6 | 7.0 | 0.00 | 0.00 | 0.00 | 18 | 1005.7 |
| 20260503184013 | 74 | 360 | 2.6 | 9.6 | 0.00 | 0.00 | 0.00 | 16 | 1005.7 |
| 20260503183516 | 75 | 360 | 2.6 | 9.6 | 0.00 | 0.00 | 0.00 | 16 | 1005.7 |
| 20260503183012 | 76 | 360 | 3.5 | 8.7 | 0.00 | 0.00 | 0.00 | 16 | 1005.7 |
| 20260503182512 | 75 | 360 | 0.9 | 7.0 | 0.00 | 0.00 | 0.00 | 17 | 1005.8 |
| 20260503182010 | 76 | 360 | 2.6 | 5.2 | 0.00 | 0.00 | 0.00 | 17 | 1005.9 |
| 20260503181523 | 75 | 360 | 1.7 | 8.7 | 0.00 | 0.00 | 0.00 | 17 | 1006.0 |